Regional Weather Roundup
Issued by NWS

Home | Current Version | Previous Version | Graphics & Text | Print | Product List | Glossary On
Versions: 1 2 3 4 5 6 7 8 9 10 11 12 13 14 15 16 17 18 19 20 21 22 23 24 25 26 27 28 29 30 31 32 33 34 35 36 37 38 39 40 41 42 43 44 45 46 47 48 49 50
000
ASUS43 KIND 080109
RWRIN

WEATHER ROUNDUP FOR INDIANA
NATIONAL WEATHER SERVICE INDIANAPOLIS IN
900 PM EDT TUE JUL 07 2015

NOTE: "FAIR" INDICATES FEW OR NO CLOUDS BELOW 12,000 FEET WITH NO
SIGNIFICANT WEATHER AND/OR OBSTRUCTIONS TO VISIBILITY.

* - STATION DOES NOT REPORT WEATHER SUCH AS PRECIPITATION OR FOG.

+ - STATION NOT QUALITY CONTROLLED BY THE NATIONAL WEATHER SERVICE.
    USE DATA WITH CAUTION...ESPECIALLY DEWPOINT AND RELATIVE
    HUMIDITY OBSERVATIONS.

INZ001>003-010>013-019-020-080200-
NORTHWEST INDIANA

CITY           SKY/WX    TMP DP  RH WIND       PRES   REMARKS
GARY /AIRPORT/ PTCLDY    61  50  67 N14G25    30.07S
KNOX *+        CLEAR     59  46  63 N8        30.03S
LA PORTE +     CLEAR     62  49  63 N13G25    30.05S
MICHIGAN CITY+ CLEAR     59  46  63 N14G22    30.06S
MONTICELLO +   MOCLDY    62  49  63 N10G16    30.03R
RENSSELAER +   PTCLDY    61  52  72 N10       30.06R
VALPARAISO     CLEAR     60  48  64 N9G23     30.06R

$$

LMZ046-743>745-080200-
SOUTHERN LAKE MICHIGAN

STATION/POSITION TIME  TEMP    WIND        PRES    WAVE
                       AIR SEA DIR/SP/G            HT
                 (UTC) (F)     (DEG/KT/KT) (MB)    (FT)
BURNS HARBOR     0100   62      20/ 19/ 24 1017.9S
MICHIGAN CITY    0100   61     350/ 27/ 31   N/A
5NW MICH CITY    0100   62 65   20/ 17/ 23   N/A     8

$$

INZ004-005-014>016-021>024-080200-
NORTH CENTRAL INDIANA

CITY           SKY/WX    TMP DP  RH WIND       PRES   REMARKS
ELKHART        CLEAR     61  48  63 NW5       30.03R
GOSHEN         CLEAR     61  52  72 NW8       30.01R
LOGANSPORT +   MOCLDY    61  43  51 N8G17     30.03R
PERU/GRISSOM   MOCLDY    62  49  61 NW9       30.01R
ROCHESTER +    PTCLDY    63  52  67 NW7       30.03R
SOUTH BEND     CLEAR     61  49  64 N13       30.04R
WARSAW +         N/A     61  52  72 NW7       30.02R

$$

INZ006>009-017-018-025>027-080200-
NORTHEAST INDIANA

CITY           SKY/WX    TMP DP  RH WIND       PRES   REMARKS
ANGOLA *+      CLOUDY    68  61  77 N3        29.99R
AUBURN +       CLOUDY    68  59  73 NW5       30.00R
FORT WAYNE     CLOUDY    67  58  72 NW10      29.99R
HUNTINGTON +   CLOUDY    65  54  65 N7        29.99R

$$

INZ028-029-035-036-043>045-051>053-080200-
WEST CENTRAL INDIANA

CITY           SKY/WX    TMP DP  RH WIND       PRES   REMARKS
CRAWFORDSVL +  CLOUDY    62  46  55 N9        30.03R
GREENCASTLE +  CLOUDY    63  55  77 N5        30.03R
LAFAYETTE      MOCLDY    62  48  60 N6        30.03R
TERRE HAUTE    CLOUDY    65  60  84 N7        30.02R

$$

INZ030>032-037>040-046>048-054>057-064-065-080200-
CENTRAL INDIANA

CITY           SKY/WX    TMP DP  RH WIND       PRES   REMARKS
CP ATTERBURY + CLOUDY    66  63  88 NW7       30.01R FOG
FISHERS *+     CLOUDY    63  59  88 N5        30.01
FRANKFORT +    CLOUDY    63  50  63 NW10      30.04R
GREENWOOD *+   CLOUDY    66  61  82 NW3       30.01R
INDIANAPOLIS   CLOUDY    66  57  72 NW7       30.00R
-EAGLE CREEK   CLOUDY    66  57  72 N10       30.00R
KOKOMO *+      CLOUDY    64  52  63 NW10      30.01R
MARION +       CLOUDY    65  53  65 NW7       30.01R
MT COMFORT *+  MOCLDY    64 N/A N/A NW3       30.01R
SHELBYVILLE    CLOUDY    68  63  84 N6        29.99R
ZIONSVILLE +   CLOUDY    65  52  62 N7        30.03R

$$

INZ033-034-041-042-049-050-058-059-080200-
EAST CENTRAL INDIANA

CITY           SKY/WX    TMP DP  RH WIND       PRES   REMARKS
MUNCIE         LGT RAIN  65  63  93 N3        29.99S FOG

$$

INZ060-061-067>069-081>083-085>088-080200-
SOUTHWEST INDIANA

CITY           SKY/WX    TMP DP  RH WIND       PRES   REMARKS
EVANSVILLE     CLOUDY    77  74  90 S6        29.97S
HUNTINGBURG *+ CLOUDY    75  72  88 SW5       29.98S
WASHINGTON +   CLOUDY    68  64  87 N8        29.99R FOG

$$

INZ062-063-066-070>080-084-089>092-080200-
SOUTH CENTRAL AND SOUTHEAST INDIANA

CITY           SKY/WX    TMP DP  RH WIND       PRES   REMARKS
BLOOMINGTON    CLOUDY    66  64  93 N6        30.01R
MADISON *+     CLOUDY    72  70  94 SW6       30.01R
NORTH VERNON + CLOUDY    70  70 100 NW8       29.99R
SEYMOUR +      CLOUDY    73  73 100 W5        29.98R

$$




USA.gov is the U.S. government's official web portal to all federal, state and local government web resources and services.